Hugo Lainez

Scout - Leon
22 Feb 2028
Dienstag
Verarbeitung

Persönlichkeit

Anpassungsfähigkeit (9) Ehrgeiz (15) Kontroverse (18) Loyalität (10) Druck (8) Professionalität (14) Fairness (7) Temperament (9)

Profil

Trainerstil Demokratisch
Lizenz Kontinentale C
Entschlossenheit 9
Menschenführung 7
Motivation 10
Disziplin 13
Arbeitszufriedenheit
100%
Ermüdung
0%
Rolle Scout
Gehalt 48.0K p/W
Vertrag 14.03.2029

Leistung

Verhalten Gut
Trainingseffektivität
44%
Spielerentwicklung
60%
Verletzungsprävention
45%
Taktische Umsetzung
50%

Letzte Ereignisse

Nahm an einer Scouting-Besprechung teil jetzt
Nahm an einer Scouting-Besprechung teil 7T her
Nahm an einer Scouting-Besprechung teil 7T her
Empfahl ein Transferziel 7T her
Nahm an einer Scouting-Besprechung teil 14T her
Nahm an einer Scouting-Besprechung teil 14T her
Empfahl ein Transferziel 14T her
Empfahl ein Transferziel 21T her

Aktuell beobachtet

74
Spieler Verein Status Fähigkeit Vertrauen Beobachtet Zuletzt beobachtet Letzte Stimme
Pablo Monroy Pumas UNAM Verloren 127 / 126 69% 1 24.01.2028 -
Jan Virgili Club Brugge Aktiv 130 / 142 40% 6 31.12.2027 -
Juan Rodríguez Wanderers Aktiv 93 / 113 40% 1 31.12.2027 -
Matías Lozano Deportivo Pasto Aktiv 107 / 117 40% 1 31.12.2027 -
Kevin Velasco Puebla Aktiv 124 / 120 65% 1 03.06.2027 Befürworten
Cyriaque Irié VfL Wolfsburg Aktiv 137 / 116 40% 2 31.05.2027 -
Kellen Fisher Norwich City Aktiv 133 / 110 40% 2 30.05.2027 -
Bosun Lawal Stoke City Aktiv 124 / 116 40% 2 30.05.2027 -
Omar Campos Cruz Azul Aktiv 125 / 123 40% 2 29.05.2027 -
Johnly Yfeko Exeter City Aktiv 100 / 117 40% 2 29.05.2027 -
Lamine Camara Monaco Aktiv 132 / 152 40% 1 29.05.2027 -
Christos Zafeiris Tigres Aktiv 147 / 141 40% 1 28.05.2027 Mehr Infos nötig
Lewis Bate Stockport County Aktiv 128 / 133 40% 1 28.05.2027 -
Joel McGregor Swindon Town Aktiv 91 / 101 40% 3 24.05.2027 -
Sascha Britschgi Padova Aktiv 128 / 112 40% 1 24.05.2027 -
Charlie Webster Burton Albion Aktiv 110 / 112 40% 1 23.05.2027 -
Matías Gómez Granada Aktiv 108 / 118 40% 1 23.05.2027 -
Jacques Ekomié Wrexham Aktiv 134 / 135 40% 1 22.05.2027 -
Samuele Angori Pisa Aktiv 146 / 124 40% 2 21.05.2027 -
Juan Mosquera Sheffield Wednesday Aktiv 113 / 123 40% 2 21.05.2027 -
Daniel Tonoli Modena Aktiv 135 / 115 40% 1 21.05.2027 -
Caleb Yirenkyi Coventry City Aktiv 132 / 130 40% 2 18.05.2027 -
Riley Owen Trento Aktiv 95 / 106 40% 1 18.05.2027 -
Matheus Gonçalves Al-Ahli Aktiv 138 / 119 40% 3 17.05.2027 -
Iván Fresneda Sporting CP Aktiv 145 / 144 40% 2 16.05.2027 -
Callum Doyle Wrexham Aktiv 144 / 134 40% 1 16.05.2027 -
Toby Collyer West Bromwich Albion Aktiv 123 / 124 40% 1 16.05.2027 -
Caspar Jander Southampton Aktiv 120 / 142 40% 1 13.05.2027 -
Kevin Vazquez Cruz Azul Aktiv 132 / 147 40% 4 12.05.2027 -
Ethan Pye Stockport County Aktiv 119 / 111 40% 1 12.05.2027 -
Bright Arrey-Mbi Braga Aktiv 125 / 132 40% 1 09.05.2027 -
Will Fish Cardiff City Aktiv 119 / 132 40% 2 08.05.2027 -
Edoardo Bove Watford Aktiv 129 / 142 40% 1 05.05.2027 -
Leo Castledine Middlesbrough Aktiv 132 / 131 40% 2 02.05.2027 -
Jonás Luna Santa Clara Aktiv 105 / 110 40% 1 02.05.2027 -
Jofre Torrents Ajax Aktiv 114 / 120 40% 1 16.04.2027 -
Calum Agius Crewe Alexandra Aktiv 103 / 100 40% 1 11.04.2027 -
Rocco Vata Watford Aktiv 113 / 123 40% 1 10.04.2027 -
Thulani Dala Platinum Stars Aktiv 88 / 114 40% 1 06.04.2027 -
Ethan Williams Peterborough United Aktiv 113 / 112 40% 1 05.04.2027 -
Daniel Awuni Aduana Stars Aktiv 105 / 83 40% 1 05.04.2027 -
Othmane Maamma Watford Aktiv 121 / 130 40% 1 05.04.2027 -
Brian Gutiérrez Guadalajara Aktiv 138 / 141 40% 1 31.12.2026 -
Reda Khadra Qarabag Aktiv 147 / 126 40% 1 27.12.2026 -
Mandla Erasmus SuperSport United Aktiv 121 / 120 40% 2 26.12.2026 -
Oston O'runov Persepolis Aktiv 115 / 117 40% 1 26.12.2026 -
Tyler Goodrham Oxford United Aktiv 104 / 133 40% 1 21.12.2026 -
Marquinhos Spartak Moscow Aktiv 138 / 132 40% 1 21.12.2026 -
Welington Southampton Aktiv 123 / 114 40% 1 17.12.2026 -
Finn Azaz Southampton Aktiv 142 / 127 40% 2 16.12.2026 -
Ozziel Herrera Tigres Aktiv 136 / 138 40% 1 16.12.2026 -
Tiago Palacios Estudiantes Aktiv 121 / 131 40% 1 11.12.2026 -
Franco Watson Lanús Aktiv 137 / 126 40% 1 11.12.2026 -
Brian Rodríguez Club America Aktiv 135 / 127 40% 1 09.12.2026 -
Alan Velasco Boca Juniors Aktiv 129 / 125 40% 1 07.12.2026 -
Ramiro Ruiz Rodríguez Atlético Tucumán Aktiv 119 / 126 40% 2 04.12.2026 -
Tomás O'Connor Gimnasia y Esgrima Aktiv 107 / 140 40% 1 01.12.2026 -
Kasey McAteer Ipswich Town Aktiv 121 / 144 40% 1 28.11.2026 -
Aarón Molinas Defensa y Justicia Aktiv 142 / 141 40% 1 28.11.2026 -
Matko Miljevic Racing Club Aktiv 139 / 113 40% 1 27.11.2026 -
Ramiro Hernandes Belgrano Aktiv 116 / 114 40% 2 18.11.2026 -
Santiago González Tigre Aktiv 134 / 136 40% 1 18.11.2026 -
Félix Lemaréchal Club Brugge Aktiv 150 / 146 40% 1 17.11.2026 -
Diego Lainez Tigres Aktiv 125 / 125 40% 2 13.11.2026 -
Imanol Machuca Independiente Aktiv 118 / 118 40% 2 10.11.2026 -
Iker Benito Queretaro Aktiv 117 / 131 40% 1 08.11.2026 -
Carlos Palacios Boca Juniors Aktiv 121 / 144 40% 1 02.11.2026 -
Matías Pellegrini Vélez Aktiv 108 / 105 40% 1 01.11.2026 -
Joaquín Gho Argentinos Juniors Aktiv 110 / 122 40% 1 21.10.2026 -
Alan Lescano Argentinos Juniors Aktiv 121 / 113 40% 1 17.10.2026 -
Rodrigo González Mitre Aktiv 126 / 119 40% 1 17.10.2026 -
Augusto Schott Talleres Aktiv 119 / 124 40% 1 08.10.2026 -
Alexander Díaz Deportivo Riestra Aktiv 131 / 113 40% 1 05.10.2026 -
Nicolás Fernández Maipú Aktiv 104 / 123 40% 1 02.08.2026 -